Talkeetna, AK

6:45 PM AKDT on April 27, 2017 (GMT -0800)
Talkeetna

Weather History for PATK - December, 2011

Change the Weather History Date:

Saturday, December 24, 2011

  Actual Average Record
Temperature  
Mean Temperature -2 °F -  
Max Temperature 8 °F 25 °F 42 °F (1983)
Min Temperature -11 °F 6 °F -34 °F (1961)
Degree Days  
Heating Degree Days 66    
Moisture  
Dew Point -7 °F    
Average Humidity 83    
Maximum Humidity 88    
Minimum Humidity 77    
Precipitation  
Precipitation 0.00 in - - ()
Sea Level Pressure  
Sea Level Pressure 29.47 in    
Wind  
Wind Speed 1 mph (NNE)    
Max Wind Speed 5 mph    
Max Gust Speed -    
Visibility 10 miles    
Events      
Averages and records for this station are not official NWS values.
T = Trace of Precipitation, MM = Missing Value Source: NWS Daily Summary

Daily Weather History Graph

Daily Weather History Graph

Search for Another Location

Airport or City:

Trip Planner

Search our weather history database for the weather conditions in past years. The results will help you decide how hot, cold, wet, or windy it might be!

Date:

Astronomy

Dec. 24, 2011 Rise Set
Actual Time 10:29 AM AKST 3:30 PM AKST
Civil Twilight 9:21 AM AKST 4:38 PM AKST
Nautical Twilight 8:18 AM AKST 5:41 PM AKST
Astronomical Twilight 7:22 AM AKST 6:37 PM AKST
Moon 10:22 AM AKST (12/24) 4:01 PM AKST (12/24)
Length of Visible Light 7h 16m
Length of Day
5h 01m
New Moon, 0% of the Moon is Illuminated
Dec 24
New Moon
Dec 31
First Quarter
Jan 8
Full
Jan 16
Last Quarter
Jan 22
New

Hourly Weather History & Observations

Time (AKST) Temp. Windchill Dew Point Humidity Pressure Visibility Wind Dir Wind Speed Gust Speed Precip Events Conditions
12:53 AM -4.0 °F - -7.1 °F 87% 29.60 in 10.0 mi Calm Calm - N/A   Clear
1:53 AM -4.0 °F - -8.0 °F 83% 29.61 in 10.0 mi Calm Calm - N/A   Clear
3:53 AM -7.1 °F - -11.9 °F 79% 29.62 in 10.0 mi Calm Calm - N/A   Partly Cloudy
4:53 AM -8.0 °F - -13.0 °F 79% 29.62 in 10.0 mi Calm Calm - N/A   Clear
5:53 AM -8.0 °F - -13.0 °F 79% 29.61 in 10.0 mi Calm Calm - N/A   Clear
6:53 AM -9.9 °F -19.2 °F -14.1 °F 82% 29.61 in 10.0 mi NE 3.5 mph - N/A   Clear
7:53 AM -11.0 °F -20.4 °F -16.1 °F 78% 29.60 in 10.0 mi NE 3.5 mph - N/A   Clear
8:53 AM -11.9 °F -21.5 °F -17.0 °F 78% 29.60 in 10.0 mi NE 3.5 mph - N/A   Clear
9:53 AM -9.0 °F - -13.0 °F 83% 29.58 in 7.0 mi Calm Calm - N/A   Clear
10:53 AM -9.9 °F - -14.1 °F 82% 29.57 in 10.0 mi Calm Calm - N/A   Clear
11:53 AM -7.1 °F -18.1 °F -11.0 °F 83% 29.55 in 10.0 mi East 4.6 mph - N/A   Clear
12:53 PM -4.0 °F - -8.0 °F 83% 29.52 in 10.0 mi Calm Calm - N/A   Clear
1:53 PM 7.0 °F 0.1 °F 3.9 °F 87% 29.47 in 10.0 mi North 3.5 mph - N/A   Clear
2:53 PM 8.1 °F -0.5 °F 3.0 °F 80% 29.43 in 10.0 mi North 4.6 mph - N/A   Mostly Cloudy
3:53 PM 7.0 °F 0.1 °F 1.0 °F 77% 29.40 in 10.0 mi Variable 3.5 mph - N/A   Partly Cloudy
4:53 PM 3.9 °F - -0.0 °F 84% 29.37 in 10.0 mi Calm Calm - N/A   Overcast
5:53 PM -0.9 °F - -5.1 °F 83% 29.37 in 10.0 mi Calm Calm - N/A   Partly Cloudy
6:53 PM -2.9 °F - -6.0 °F 87% 29.33 in 10.0 mi Calm Calm - N/A   Partly Cloudy
7:53 PM -2.0 °F - -6.0 °F 83% 29.31 in 10.0 mi Calm Calm - N/A   Mostly Cloudy
8:53 PM -0.9 °F - -5.1 °F 83% 29.29 in 10.0 mi Calm Calm - N/A   Overcast
9:53 PM -0.0 °F - -2.9 °F 88% 29.28 in 10.0 mi Calm Calm - N/A   Overcast
10:53 PM 1.0 °F - -2.0 °F 87% 29.26 in 10.0 mi Calm Calm - N/A   Overcast
11:53 PM 1.9 °F - -2.0 °F 83% 29.24 in 10.0 mi Calm Calm - N/A   Mostly Cloudy